Glendive, MT

7:28 AM MST on February 12, 2016 (GMT -0700)
Dawson Community

Weather History for KGDV - March, 2013

Change the Weather History Date:

Wednesday, March 6, 2013

  Actual Average Record
Temperature  
Mean Temperature 19 °F -  
Max Temperature 28 °F 28 °F 57 °F (2015)
Min Temperature 10 °F 11 °F -4 °F (2002)
Degree Days  
Heating Degree Days 46    
Moisture  
Dew Point 14 °F    
Average Humidity 81    
Maximum Humidity 92    
Minimum Humidity 69    
Precipitation  
Precipitation 0.00 in - - ()
Sea Level Pressure  
Sea Level Pressure 30.02 in    
Wind  
Wind Speed 9 mph (East)    
Max Wind Speed 21 mph    
Max Gust Speed 24 mph    
Visibility 10 miles    
Events      
Averages and records for this station are not official NWS values.
T = Trace of Precipitation, MM = Missing Value Source: NWS Daily Summary

Daily Weather History Graph

Daily Weather History Graph

Search for Another Location

Airport or City:

Trip Planner

Search our weather history database for the weather conditions in past years. The results will help you decide how hot, cold, wet, or windy it might be!

Date:

Astronomy

Mar. 06, 2013 Rise Set
Actual Time 6:29 AM MST 5:52 PM MST
Civil Twilight 5:58 AM MST 6:22 PM MST
Nautical Twilight 5:23 AM MST 6:58 PM MST
Astronomical Twilight 4:47 AM MST 7:33 PM MST
Moon 2:57 AM MST (3/6) 12:20 PM MST (3/6)
Length of Visible Light 12h 24m
Length of Day
11h 23m
Waning Crescent, 29% of the Moon is Illuminated
Mar 6
Waning Crescent
Mar 11
New
Mar 19
First Quarter
Mar 27
Full
Apr 2
Last Quarter

Hourly Weather History & Observations

Time (MST) Temp. Windchill Dew Point Humidity Pressure Visibility Wind Dir Wind Speed Gust Speed Precip Events Conditions
12:15 AM 10.4 °F -0.4 °F 5.0 °F 79% 30.19 in 10.0 mi ENE 6.9 mph - N/A   Clear
12:35 AM 10.4 °F -1.5 °F 6.8 °F 85% 30.19 in 10.0 mi NE 8.1 mph - N/A   Clear
12:55 AM 10.4 °F -0.4 °F 6.8 °F 85% 30.19 in 10.0 mi NE 6.9 mph - N/A   Clear
1:15 AM 10.4 °F -1.5 °F 8.6 °F 92% 30.19 in 10.0 mi NE 8.1 mph - N/A   Clear
1:55 AM 10.4 °F -2.4 °F 6.8 °F 85% 30.18 in 10.0 mi NE 9.2 mph - N/A   Clear
2:15 AM 10.4 °F -3.3 °F 6.8 °F 85% 30.18 in 10.0 mi NE 10.4 mph - N/A   Clear
2:35 AM 10.4 °F -3.3 °F 5.0 °F 79% 30.17 in 10.0 mi NE 10.4 mph - N/A   Clear
2:55 AM 10.4 °F -1.5 °F 6.8 °F 85% 30.16 in 10.0 mi ENE 8.1 mph - N/A   Clear
3:15 AM 10.4 °F -0.4 °F 6.8 °F 85% 30.16 in 10.0 mi ENE 6.9 mph - N/A   Clear
3:35 AM 10.4 °F -1.5 °F 6.8 °F 85% 30.15 in 10.0 mi ENE 8.1 mph - N/A   Clear
3:55 AM 10.4 °F -0.4 °F 5.0 °F 79% 30.15 in 10.0 mi ENE 6.9 mph - N/A   Clear
4:15 AM 10.4 °F -1.5 °F 6.8 °F 85% 30.14 in 10.0 mi ENE 8.1 mph - N/A   Clear
4:35 AM 10.4 °F -0.4 °F 6.8 °F 85% 30.14 in 10.0 mi ENE 6.9 mph - N/A   Clear
4:55 AM 10.4 °F 0.8 °F 6.8 °F 85% 30.14 in 10.0 mi ENE 5.8 mph - N/A   Clear
5:15 AM 10.4 °F -1.5 °F 6.8 °F 85% 30.14 in 10.0 mi NE 8.1 mph - N/A   Clear
5:35 AM 10.4 °F -1.5 °F 5.0 °F 79% 30.14 in 10.0 mi NE 8.1 mph - N/A   Clear
5:55 AM 10.4 °F -2.4 °F 6.8 °F 85% 30.13 in 10.0 mi ENE 9.2 mph - N/A   Clear
6:15 AM 10.4 °F -0.4 °F 8.6 °F 92% 30.13 in 10.0 mi ENE 6.9 mph - N/A   Clear
6:35 AM 10.4 °F 0.8 °F 8.6 °F 92% 30.12 in 10.0 mi ENE 5.8 mph - N/A   Clear
6:55 AM 10.4 °F 0.8 °F 6.8 °F 85% 30.12 in 10.0 mi ENE 5.8 mph - N/A   Clear
7:15 AM 10.4 °F 0.8 °F 6.8 °F 85% 30.12 in 10.0 mi ENE 5.8 mph - N/A   Clear
7:35 AM 12.2 °F 1.7 °F 8.6 °F 85% 30.11 in 10.0 mi ENE 6.9 mph - N/A   Clear
7:55 AM 12.2 °F 2.9 °F 8.6 °F 85% 30.11 in 10.0 mi ENE 5.8 mph - N/A   Clear
8:35 AM 15.8 °F 5.1 °F 10.4 °F 79% 30.10 in 10.0 mi ENE 8.1 mph - N/A   Clear
9:15 AM 17.6 °F 6.4 °F 12.2 °F 79% 30.08 in 10.0 mi ENE 9.2 mph - N/A   Clear
9:35 AM 17.6 °F 7.3 °F 12.2 °F 79% 30.08 in 10.0 mi East 8.1 mph - N/A   Clear
9:55 AM 19.4 °F 10.4 °F 14.0 °F 80% 30.07 in 10.0 mi East 6.9 mph - N/A   Clear
10:15 AM 19.4 °F 10.4 °F 14.0 °F 80% 30.07 in 10.0 mi East 6.9 mph - N/A   Clear
10:35 AM 21.2 °F 13.6 °F 15.8 °F 80% 30.06 in 10.0 mi East 5.8 mph - N/A   Clear
11:35 AM 24.8 °F 14.0 °F 17.6 °F 74% 30.03 in 10.0 mi ESE 11.5 mph - N/A   Clear
11:55 AM 26.6 °F 16.2 °F 19.4 °F 74% 30.02 in 10.0 mi ESE 11.5 mph - N/A   Clear
12:15 PM 26.6 °F 16.2 °F 17.6 °F 69% 30.01 in 10.0 mi East 11.5 mph - N/A   Clear
12:35 PM 26.6 °F 16.2 °F 19.4 °F 74% 29.99 in 10.0 mi ESE 11.5 mph - N/A   Partly Cloudy
12:55 PM 26.6 °F 14.3 °F 19.4 °F 74% 29.98 in 10.0 mi ESE 16.1 mph - N/A   Partly Cloudy
1:15 PM 26.6 °F 15.7 °F 19.4 °F 74% 29.97 in 10.0 mi ESE 12.7 mph - N/A   Scattered Clouds
1:35 PM 26.6 °F 15.7 °F 21.2 °F 80% 29.96 in 10.0 mi East 12.7 mph - N/A   Partly Cloudy
1:55 PM 26.6 °F 15.7 °F 21.2 °F 80% 29.95 in 10.0 mi ESE 12.7 mph - N/A   Partly Cloudy
2:35 PM 28.4 °F 17.0 °F 21.2 °F 74% 29.94 in 10.0 mi ESE 15.0 mph - N/A   Partly Cloudy
2:55 PM 28.4 °F 18.0 °F 21.2 °F 74% 29.93 in 10.0 mi ESE 12.7 mph - N/A   Partly Cloudy
3:15 PM 26.6 °F 14.7 °F 19.4 °F 74% 29.92 in 10.0 mi ESE 15.0 mph - N/A   Scattered Clouds
3:35 PM 28.4 °F 18.0 °F 21.2 °F 74% 29.92 in 10.0 mi ESE 12.7 mph - N/A   Mostly Cloudy
3:55 PM 28.4 °F 15.1 °F 21.2 °F 74% 29.92 in 10.0 mi ESE 20.7 mph 24.2 mph N/A   Mostly Cloudy
4:15 PM 26.6 °F 14.3 °F 21.2 °F 80% 29.91 in 10.0 mi ESE 16.1 mph - N/A   Mostly Cloudy
4:35 PM 26.6 °F 14.7 °F 19.4 °F 74% 29.91 in 10.0 mi SE 15.0 mph - N/A   Overcast
4:55 PM 26.6 °F 15.7 °F 19.4 °F 74% 29.90 in 10.0 mi ESE 12.7 mph - N/A   Overcast
5:15 PM 24.8 °F 11.9 °F 19.4 °F 80% 29.91 in 10.0 mi ESE 16.1 mph - N/A   Overcast
5:35 PM 24.8 °F 14.0 °F 19.4 °F 80% 29.90 in 10.0 mi East 11.5 mph - N/A   Mostly Cloudy
5:55 PM 24.8 °F 14.6 °F 19.4 °F 80% 29.89 in 10.0 mi East 10.4 mph - N/A   Partly Cloudy
6:15 PM 24.8 °F 14.0 °F 19.4 °F 80% 29.88 in 10.0 mi ENE 11.5 mph - N/A   Partly Cloudy
6:36 PM 24.8 °F 12.9 °F 19.4 °F 80% 29.88 in 10.0 mi East 13.8 mph - N/A   Clear
6:55 PM 24.8 °F 12.4 °F 19.4 °F 80% 29.87 in 10.0 mi East 15.0 mph - N/A   Clear
7:35 PM 24.8 °F 13.4 °F 19.4 °F 80% 29.87 in 10.0 mi East 12.7 mph - N/A   Clear
8:15 PM 24.8 °F 15.3 °F 19.4 °F 80% 29.88 in 10.0 mi East 9.2 mph - N/A   Scattered Clouds
8:35 PM 24.8 °F 15.3 °F 19.4 °F 80% 29.88 in 10.0 mi ENE 9.2 mph - N/A   Partly Cloudy
8:55 PM 23.0 °F 12.4 °F 17.6 °F 80% 29.87 in 10.0 mi East 10.4 mph - N/A   Clear
9:15 PM 21.2 °F 10.9 °F 17.6 °F 86% 29.86 in 10.0 mi East 9.2 mph - N/A   Clear
9:55 PM 21.2 °F 10.9 °F 15.8 °F 80% 29.85 in 10.0 mi East 9.2 mph - N/A   Clear
10:15 PM 21.2 °F 10.9 °F 17.6 °F 86% 29.85 in 10.0 mi East 9.2 mph - N/A   Clear
10:35 PM 21.2 °F 10.9 °F 17.6 °F 86% 29.85 in 10.0 mi East 9.2 mph - N/A   Clear
10:55 PM 21.2 °F 10.9 °F 15.8 °F 80% 29.84 in 10.0 mi East 9.2 mph - N/A   Clear
11:15 PM 19.4 °F 10.4 °F 15.8 °F 86% 29.85 in 10.0 mi ENE 6.9 mph - N/A   Clear
11:35 PM 19.4 °F 10.4 °F 15.8 °F 86% 29.85 in 10.0 mi ENE 6.9 mph - N/A   Clear